Temperature
17 17 17 17 20 21 20 18 18 16 16 14 13 15 16 15 15 14 9 9 10 10 10 10 11 11 12 12 12 12 13 13 13 13 13 13 13 13 13 13 13 14 14 14 14 14 14 14 14
16 17 17 19 21 21 19 18 17 16 14 12 12 13 13 11 9 8 8 9 9 10 10 10 11 11 11 12 12 12 12 13 13 13 13 13 13 13 13 13 13 13 13 14 14 14 14 14 14
16 17 17 20 20 20 19 17 16 13 12 12 12 11 11 9 8 7 8 9 9 9 10 10 10 11 11 11 12 12 12 12 12 13 13 13 13 13 13 13 13 13 13 13 13 14 14 14 14
16 17 17 19 18 17 17 16 14 13 12 11 11 11 8 7 7 7 8 8 9 9 9 10 10 10 11 11 11 12 12 12 12 12 12 13 13 13 13 12 12 13 13 13 13 13 13 14 13
16 18 19 18 17 15 14 13 13 14 13 11 11 11 8 6 7 7 8 8 9 9 9 9 10 10 10 11 11 11 11 12 12 12 12 12 12 12 12 12 12 12 12 12 12 13 13 13 13
16 18 19 18 16 14 13 12 12 13 12 10 10 10 8 6 7 7 8 8 8 9 9 9 10 10 10 10 11 11 11 11 11 11 12 12 12 12 12 12 12 12 12 12 12 12 13 13 13
17 18 18 17 16 14 13 11 12 12 12 10 9 10 7 6 6 7 7 8 8 8 9 9 9 9 10 10 10 10 10 10 11 11 11 11 11 11 12 12 12 12 12 12 12 12 12 12 12
14 17 16 16 16 15 12 10 10 11 10 7 8 10 8 6 6 7 7 7 8 8 8 8 9 9 9 9 10 10 10 10 10 10 10 11 11 11 11 11 11 11 11 11 12 12 12 12 12
14 17 17 16 15 14 11 10 8 8 8 6 6 6 6 6 6 6 6 7 7 7 8 8 8 8 9 9 9 9 9 9 9 10 10 10 10 10 10 11 11 11 11 11 11 11 11 12 12
14 16 15 14 14 13 11 10 9 8 8 7 5 5 5 6 5 6 6 6 6 7 7 7 7 8 8 8 8 9 9 9 9 9 9 10 10 10 10 10 10 10 11 11 11 11 11 11 11
13 14 12 11 10 10 10 9 8 10 10 8 7 5 5 5 5 5 5 5 6 6 6 7 7 7 7 8 8 8 8 8 8 9 9 9 9 9 10 10 10 10 10 10 10 10 10 10 11
12 10 10 9 8 9 9 8 7 8 8 6 6 5 5 5 5 5 5 5 5 6 6 6 6 7 7 7 7 7 7 8 8 8 8 8 9 9 9 9 9 9 9 10 10 10 10 10 10
11 9 8 7 7 7 7 7 7 6 5 5 4 4 4 4 4 4 4 5 5 5 5 5 6 6 6 6 7 7 7 7 7 7 7 8 8 8 8 8 9 9 9 9 9 9 9 9 10
9 9 8 7 7 7 7 6 6 5 4 4 4 4 4 4 4 4 4 4 4 5 5 5 5 5 5 6 6 6 6 6 6 7 7 7 7 7 7 8 8 8 8 8 8 8 9 9 9
9 10 9 8 8 7 7 8 7 5 4 4 3 3 3 3 3 4 4 4 4 4 4 4 4 5 5 5 5 5 5 6 6 6 6 6 6 7 7 7 7 7 7 7 8 8 8 8 8
10 11 11 9 8 7 9 11 7 4 4 4 3 3 3 3 3 3 3 3 4 4 4 4 4 4 4 4 5 5 5 5 5 5 5 5 6 6 6 6 6 7 7 7 7 7 7 7 8
11 12 12 10 8 8 9 10 7 4 4 4 3 3 3 2 2 2 3 3 3 3 3 3 3 3 4 4 4 4 4 4 4 4 4 5 5 5 5 5 6 6 6 6 6 6 6 7 7
12 12 11 11 9 8 8 9 7 4 4 4 4 3 2 2 2 2 2 2 2 2 3 3 3 3 3 3 3 3 3 3 4 4 4 4 4 4 4 4 5 5 5 5 5 5 6 6 6
11 11 11 10 8 8 8 8 7 5 4 4 4 3 3 2 2 2 2 2 2 2 2 2 2 2 2 2 3 3 3 3 3 3 3 3 3 4 4 4 4 4 4 4 4 4 5 5 5
10 10 10 8 7 7 7 7 7 6 4 4 4 3 3 2 1 1 1 2 2 2 2 2 2 2 2 2 2 2 2 2 2 2 2 2 3 3 3 3 3 3 3 3 3 3 4 4 4
9 10 9 8 7 6 7 9 7 6 4 3 3 3 2 2 1 1 1 1 1 1 1 1 1 1 1 1 1 1 1 1 1 2 2 2 2 2 2 2 2 2 2 2 2 3 3 3 3
9 8 8 7 8 9 8 10 10 6 5 4 3 3 2 2 1 1 1 1 1 1 1 1 1 1 1 1 1 1 1 1 1 1 1 1 1 1 1 1 1 1 1 1 2 2 2 1 2
8 6 7 7 8 8 7 8 10 6 6 5 4 3 2 1 1 0 0 1 1 1 1 1 1 1 0 0 0 0 0 -0 -0 -0 -0 0 0 0 0 1 0 1 1 1 1 1 1 1 1
6 6 6 7 7 8 8 8 10 8 7 6 5 3 2 1 0 0 0 0 0 0 0 0 0 0 -0 -0 -0 -0 -1 -1 -1 -1 -1 -1 -0 -0 -0 -0 -0 -0 -0 -0 0 0 0 0 0
6 8 9 8 8 9 6 6 9 7 5 5 4 3 2 1 0 -0 -0 -0 -0 -0 -0 -0 -0 -0 -1 -1 -1 -1 -1 -1 -1 -1 -1 -1 -1 -1 -1 -1 -1 -1 -1 -1 -1 -1 -1 -1 -1
6 8 9 9 9 10 5 7 8 5 3 2 2 1 1 0 0 -0 -1 -1 -1 -1 -1 -1 -1 -1 -1 -1 -1 -2 -2 -2 -2 -2 -2 -2 -2 -2 -2 -2 -2 -2 -2 -2 -2 -1 -1 -1 -1
6 7 6 7 6 7 8 8 7 4 3 2 1 1 0 -0 -0 -1 -1 -1 -1 -1 -1 -1 -1 -1 -2 -2 -2 -2 -3 -3 -3 -3 -3 -3 -3 -3 -3 -3 -3 -3 -2 -2 -2 -2 -2 -2 -2
5 6 6 7 7 8 9 8 9 6 5 3 2 1 0 -0 -1 -1 -1 -1 -1 -2 -2 -2 -2 -2 -2 -2 -3 -3 -3 -3 -3 -3 -3 -3 -3 -3 -3 -3 -3 -3 -3 -3 -3 -3 -3 -3 -3
4 4 6 6 6 8 8 9 6 5 4 3 2 1 0 -1 -1 -1 -1 -2 -2 -2 -2 -2 -2 -3 -3 -3 -3 -3 -3 -4 -4 -4 -4 -4 -4 -4 -4 -4 -4 -4 -4 -4 -4 -4 -4 -4 -3
4 5 5 6 6 5 7 8 4 3 2 2 1 0 -0 -1 -1 -2 -2 -2 -2 -2 -3 -3 -3 -3 -3 -3 -4 -4 -4 -4 -4 -5 -4 -5 -5 -5 -5 -5 -5 -4 -4 -4 -4 -4 -4 -4 -4
Wind_Speed
3 1 2 2 3 2 4 3 3 5 3 3 4 3 3 3 2 4 3 6 8 8 9 10 11 11 11 12 13 13 14 14 14 14 14 13 13 13 12 11 11 11 11 12 12 12 12 11 12
2 1 2 2 5 6 5 5 5 3 5 5 4 4 4 5 5 4 3 7 8 8 9 9 11 12 12 13 13 13 14 14 14 14 14 13 13 13 13 11 12 12 12 12 12 12 12 12 11
1 0 1 2 3 5 5 5 6 6 6 3 3 4 3 4 4 3 5 6 6 8 9 10 12 12 12 13 14 14 14 14 14 14 13 13 13 14 14 12 12 12 12 12 12 12 12 12 11
2 2 1 3 4 1 2 5 7 8 4 3 4 5 4 4 3 4 4 5 6 8 10 10 12 13 12 13 14 14 14 14 14 14 13 13 13 14 14 14 13 12 12 11 12 11 11 11 11
1 2 3 4 4 3 3 4 7 6 4 4 4 4 4 3 5 6 5 6 7 9 10 11 13 13 14 13 13 14 14 14 14 14 14 13 13 14 14 14 14 13 12 12 11 11 11 11 11
2 2 5 7 6 4 4 4 6 5 5 4 4 5 4 4 5 5 5 6 7 8 9 11 12 14 15 15 14 13 14 14 14 14 14 13 13 14 14 14 14 13 12 11 11 11 10 10 10
2 3 4 6 7 6 4 4 5 6 5 3 3 5 4 3 4 4 5 6 7 8 9 11 11 12 14 15 15 14 13 13 14 13 13 13 13 13 13 13 13 13 12 11 10 10 10 10 10
1 3 4 5 7 6 6 4 3 3 4 3 1 4 4 3 3 3 4 6 7 8 9 10 11 11 11 12 14 15 13 13 13 13 13 12 11 11 12 12 13 13 12 11 10 9 9 9 9
2 3 5 6 7 6 8 5 3 3 5 3 2 2 3 6 5 4 4 5 6 7 8 9 10 10 10 10 11 12 12 12 11 11 12 10 9 9 9 11 12 13 12 11 9 8 8 6 7
1 4 4 2 3 6 8 6 6 6 5 3 3 3 6 7 5 4 4 4 5 6 7 8 9 9 9 9 9 9 9 9 10 9 9 9 8 8 8 9 11 12 11 10 9 7 6 5 4
1 2 3 3 4 6 7 5 5 7 4 4 6 7 7 6 5 4 3 3 3 4 5 6 7 8 8 8 8 8 8 8 9 10 9 8 8 7 8 7 8 9 9 8 7 5 5 5 4
3 3 3 4 4 5 6 6 4 3 1 2 5 7 7 6 5 4 3 2 2 3 4 5 7 7 7 7 7 7 7 8 8 8 9 8 7 7 7 7 7 7 7 7 7 6 5 4 4
3 4 4 5 6 5 5 4 3 3 2 4 6 7 7 6 5 3 3 2 2 3 3 4 6 6 6 6 6 7 7 7 8 8 8 8 7 6 6 6 7 7 7 7 7 6 6 5 4
5 7 6 4 4 3 5 3 3 4 5 6 6 6 6 5 5 4 3 2 2 2 3 4 5 5 6 6 6 6 6 7 7 8 8 8 7 7 6 6 6 7 7 7 6 6 5 4 3
7 6 4 2 2 3 4 2 4 6 7 6 6 6 5 5 4 4 3 2 1 2 2 3 4 5 5 6 6 6 6 7 7 7 8 8 8 7 6 6 6 7 7 7 6 6 5 4 3
4 4 3 3 3 3 5 6 5 8 8 7 6 6 5 4 4 3 2 2 2 2 2 3 3 4 4 5 5 5 6 6 7 7 7 8 8 7 7 5 6 7 6 6 6 6 4 4 3
3 4 5 4 4 3 6 6 5 8 9 8 8 7 6 5 4 3 2 2 2 2 2 3 3 3 4 4 4 5 6 6 7 7 8 8 8 7 7 6 6 6 6 6 5 5 5 4 4
4 5 5 6 4 5 7 8 5 8 10 9 8 8 7 6 5 3 2 2 2 2 2 2 2 3 3 3 3 4 5 6 6 7 8 8 8 7 6 6 6 6 5 5 5 5 5 4 4
4 5 5 3 1 5 9 10 9 9 10 10 9 9 8 7 5 4 3 3 2 2 2 2 2 3 3 2 2 2 3 4 5 6 8 8 8 8 6 5 6 5 4 4 5 5 5 4 4
4 5 4 2 1 4 7 11 9 10 12 11 10 9 9 7 6 5 4 3 3 2 2 1 2 2 2 2 2 2 2 2 4 5 6 8 8 8 7 6 5 5 4 4 5 5 4 4 4
5 6 5 3 2 3 5 7 7 7 9 9 9 9 8 8 8 6 5 4 3 3 2 1 1 1 2 2 2 2 2 2 3 4 5 7 8 8 7 6 5 5 5 4 4 4 4 4 4
5 3 4 4 4 4 3 6 5 6 8 10 10 10 9 8 8 7 6 5 4 3 2 1 1 1 1 2 1 2 2 3 4 4 4 6 7 7 7 7 6 5 5 4 4 4 4 4 4
1 1 2 4 5 5 5 6 5 4 6 10 11 10 9 8 8 8 7 6 5 3 3 2 1 0 1 1 1 1 2 2 2 3 4 5 5 6 6 6 6 5 5 5 5 5 4 4 5
4 3 2 2 4 6 6 7 6 4 5 5 8 9 8 8 7 7 6 5 4 3 3 2 2 1 1 1 1 1 2 3 3 4 4 4 4 5 6 6 6 6 5 5 5 5 6 5 6
3 3 2 3 4 5 3 6 7 2 3 4 5 7 7 7 7 7 7 6 5 4 3 2 2 2 1 1 2 2 2 3 3 4 4 5 4 5 6 7 6 6 6 7 6 6 6 7 7
5 5 4 4 5 3 3 7 4 1 1 2 3 4 5 6 6 6 6 6 5 5 4 3 3 2 2 2 2 3 3 3 3 4 4 5 5 5 7 7 7 8 8 7 7 6 6 7 7
5 5 1 1 2 5 6 5 5 2 2 3 4 5 6 6 5 6 6 5 5 4 4 4 3 3 3 3 3 3 4 4 4 5 5 5 5 6 7 8 8 8 8 8 7 6 7 7 7
1 4 4 4 4 6 6 6 4 3 3 4 5 6 6 5 5 5 5 5 4 3 3 3 3 3 3 3 3 3 4 4 5 5 6 6 7 7 8 8 8 8 8 8 7 7 7 8 8
5 5 5 4 4 5 5 4 0 3 3 4 4 4 5 5 5 5 5 4 4 3 3 3 3 3 3 3 4 4 5 5 5 5 6 7 7 8 8 8 8 8 8 9 8 8 8 9 9
5 6 7 5 5 4 5 5 2 1 2 2 3 3 4 4 4 4 4 4 4 3 3 3 3 3 4 4 4 5 5 5 6 6 7 7 8 8 8 8 8 8 8 9 9 9 9 9 10
Wind_Direction
343 314 222 213 191 182 202 171 156 143 129 91 78 95 105 80 45 91 60 20 3 357 357 2 14 25 35 41 42 43 43 43 42 42 44 45 43 43 49 53 54 54 55 56 59 60 60 63 65
333 240 201 210 217 205 191 173 158 127 117 116 92 90 96 83 59 71 40 6 3 6 6 14 21 29 39 44 44 45 45 43 42 41 42 43 42 42 45 51 52 53 55 56 58 59 59 59 62
138 326 184 179 210 216 172 150 142 117 119 129 108 71 76 88 73 48 25 6 12 17 15 22 27 33 41 47 47 45 44 43 41 40 40 42 41 40 41 45 50 51 53 56 56 58 59 59 59
196 155 149 197 185 191 132 139 142 138 125 99 124 108 95 57 42 42 36 25 31 27 23 28 31 36 41 47 47 44 42 41 39 39 40 43 40 38 37 40 44 47 50 53 53 54 57 58 58
200 184 173 183 185 144 119 132 158 157 143 126 133 120 111 80 64 61 46 37 36 30 25 30 35 37 41 45 47 46 43 42 40 39 39 41 41 40 39 38 39 42 46 48 48 48 54 57 57
164 195 200 197 179 153 139 151 161 154 136 129 133 127 113 92 70 55 50 46 40 35 31 33 36 37 39 41 43 45 44 42 41 41 40 41 42 41 40 39 37 37 40 44 46 45 49 53 55
193 183 194 184 174 176 161 156 166 159 149 135 144 137 132 120 73 67 61 56 48 42 39 36 35 37 39 40 39 41 43 42 41 41 41 39 41 42 40 38 36 34 35 39 44 45 46 49 52
135 149 163 179 180 179 151 145 134 161 136 101 145 155 150 144 105 86 73 62 52 45 40 36 36 35 35 37 39 39 41 41 41 39 38 37 38 41 39 36 35 33 31 34 40 45 44 48 50
217 200 200 189 185 167 156 154 126 108 124 117 84 72 99 127 127 107 85 63 50 42 35 33 33 33 32 34 35 36 37 37 35 33 31 30 30 34 37 33 32 33 29 29 34 42 41 43 51
209 211 203 161 167 157 159 160 149 152 152 157 136 109 120 132 133 122 98 71 50 38 31 28 29 28 28 29 29 29 30 30 29 26 24 23 24 26 28 31 30 29 24 24 29 39 41 32 34
104 169 141 118 116 140 150 152 160 170 186 196 179 156 146 141 135 129 111 87 63 46 35 28 26 28 29 29 28 28 26 26 26 23 20 20 21 20 22 22 19 18 17 16 18 26 29 24 21
118 97 106 120 119 139 148 149 155 201 172 111 151 151 152 150 146 143 130 97 68 53 41 32 27 31 31 32 33 30 27 26 25 21 18 17 19 18 19 21 14 11 8 6 9 8 8 13 16
136 128 95 101 103 113 124 142 156 175 140 118 131 143 153 157 153 144 132 119 92 67 47 36 30 33 32 34 35 33 29 27 25 22 19 19 19 15 15 17 14 10 5 4 2 2 2 3 6
119 118 117 113 115 139 136 144 161 189 153 142 145 151 157 162 162 152 143 131 102 74 52 40 39 37 37 38 36 34 30 25 25 26 22 19 18 15 10 12 13 10 4 358 354 355 350 354 353
126 121 121 134 143 147 153 202 206 172 163 162 162 161 162 165 163 166 162 146 124 84 65 50 45 40 40 40 37 34 30 25 25 24 21 21 17 14 11 11 11 4 357 355 352 353 351 351 345
145 169 193 167 174 177 223 241 178 170 177 179 178 177 174 173 172 166 159 145 128 103 86 63 50 45 42 42 40 37 31 27 24 20 19 19 17 14 11 12 8 358 357 357 356 355 345 348 340
177 215 225 197 191 193 228 248 182 182 193 196 193 191 187 183 183 176 163 150 137 119 95 71 53 49 45 45 44 41 35 30 22 19 17 15 15 14 12 10 6 359 0 360 356 351 346 341 341
209 221 225 223 198 217 236 248 214 199 208 210 202 198 196 196 194 181 167 153 139 121 101 83 62 48 51 54 50 42 36 29 21 19 16 11 10 11 10 10 7 4 2 360 356 346 348 343 337
201 214 235 235 199 234 245 255 240 211 213 215 210 204 204 203 189 177 171 163 149 131 116 94 69 45 34 31 20 19 15 11 14 15 13 8 9 7 7 5 3 1 0 353 349 343 343 350 344
193 221 243 242 206 257 267 267 249 216 213 214 212 209 206 200 192 185 180 174 170 162 146 104 71 46 26 10 3 358 357 360 2 4 8 7 6 3 359 358 354 352 345 343 348 349 341 341 347
221 234 246 257 291 232 280 263 221 213 216 219 219 215 210 205 201 193 191 191 186 183 178 153 83 43 21 17 19 26 10 349 352 354 356 0 0 360 357 348 345 343 339 332 336 336 334 324 326
238 238 235 225 238 247 241 277 234 204 215 220 219 214 211 207 206 199 196 197 197 191 180 171 142 54 21 20 25 15 358 346 335 334 337 346 353 355 352 347 340 336 332 327 325 320 309 301 304
212 118 199 220 236 260 227 253 260 188 230 226 218 214 211 207 205 203 200 198 196 188 181 177 168 102 11 1 1 0 352 334 329 327 332 338 345 348 348 343 337 331 325 321 320 311 300 288 287
131 123 120 175 221 248 225 232 264 212 226 219 208 210 210 206 202 202 197 191 188 182 180 182 182 210 287 315 322 317 319 321 322 325 328 329 333 336 341 335 329 323 319 313 310 304 298 284 276
178 182 225 228 227 244 169 235 258 252 228 229 214 208 205 202 200 199 194 190 189 188 190 194 203 226 254 279 290 296 297 297 301 311 315 319 321 324 328 326 320 317 311 309 303 294 291 286 275
196 214 224 247 256 268 210 240 261 354 272 252 231 213 204 201 201 201 198 193 192 193 197 202 212 230 248 266 281 289 291 291 296 300 304 307 309 311 314 314 310 308 307 302 300 291 285 285 277
180 206 252 250 271 266 246 257 275 217 237 225 217 209 206 202 202 200 196 194 195 195 201 206 215 232 248 261 273 279 283 288 293 295 298 300 301 303 305 304 303 301 302 298 295 286 281 282 279
265 164 169 207 246 261 262 257 255 231 226 214 218 215 212 203 198 194 194 193 195 197 203 210 221 239 254 262 268 276 281 286 289 291 293 297 299 300 299 302 302 300 296 295 288 286 280 277 277
168 181 202 209 244 251 268 263 237 236 224 222 224 215 210 206 202 196 193 191 192 195 203 218 228 246 257 265 271 277 282 285 285 285 288 294 296 297 296 298 298 297 296 294 285 281 284 278 276
222 210 194 213 223 228 260 272 58 250 247 235 237 230 220 211 204 197 193 192 196 204 215 228 238 247 258 266 271 277 282 283 282 285 288 292 293 293 293 291 290 289 289 290 286 280 280 280 278
Height
1523 1524 1526 1528 1528 1527 1530 1535 1537 1541 1545 1549 1549 1549 1548 1551 1552 1560 1562 1558 1558 1558 1558 1557 1557 1556 1556 1555 1554 1554 1553 1552 1551 1551 1550 1550 1549 1548 1548 1547 1547 1546 1546 1545 1545 1545 1544 1544 1544
1524 1525 1528 1528 1523 1526 1532 1535 1539 1543 1548 1550 1551 1551 1551 1555 1558 1559 1558 1558 1558 1558 1558 1557 1557 1556 1556 1555 1554 1554 1553 1553 1552 1551 1551 1550 1550 1549 1548 1548 1548 1547 1547 1546 1546 1546 1545 1545 1544
1524 1526 1528 1526 1524 1524 1530 1538 1542 1548 1550 1551 1552 1553 1555 1558 1559 1559 1558 1558 1558 1558 1558 1557 1557 1556 1556 1555 1555 1554 1553 1553 1552 1551 1551 1550 1550 1549 1549 1549 1548 1548 1547 1547 1546 1546 1546 1546 1545
1525 1527 1529 1526 1529 1534 1536 1541 1545 1548 1550 1552 1552 1555 1557 1559 1559 1558 1558 1558 1558 1558 1558 1557 1557 1556 1556 1555 1554 1554 1553 1553 1552 1552 1551 1550 1550 1550 1549 1549 1548 1548 1548 1547 1547 1546 1546 1546 1546
1525 1526 1525 1528 1533 1539 1543 1545 1547 1547 1549 1552 1553 1555 1558 1559 1558 1558 1558 1558 1558 1558 1557 1557 1556 1556 1555 1555 1554 1554 1553 1553 1552 1551 1551 1550 1550 1550 1549 1549 1548 1548 1548 1547 1547 1546 1546 1546 1545
1526 1524 1523 1526 1533 1541 1545 1547 1547 1548 1550 1553 1554 1555 1558 1558 1558 1558 1558 1558 1558 1558 1557 1557 1556 1556 1555 1555 1554 1553 1553 1552 1552 1551 1550 1550 1550 1549 1549 1549 1548 1548 1548 1547 1547 1546 1546 1546 1545
1526 1523 1523 1527 1533 1539 1545 1547 1548 1548 1550 1553 1554 1555 1557 1558 1558 1558 1558 1558 1558 1558 1557 1557 1556 1556 1555 1554 1554 1553 1552 1552 1551 1551 1550 1550 1549 1549 1548 1548 1548 1547 1547 1547 1546 1546 1546 1545 1545
1525 1526 1528 1529 1532 1537 1545 1547 1549 1549 1551 1554 1555 1555 1557 1557 1557 1557 1558 1558 1558 1557 1557 1556 1556 1555 1555 1554 1553 1552 1552 1551 1550 1550 1549 1549 1549 1548 1548 1547 1547 1547 1546 1546 1546 1545 1545 1545 1545
1525 1526 1526 1529 1531 1536 1544 1546 1549 1550 1552 1553 1553 1555 1555 1555 1556 1557 1557 1557 1557 1557 1556 1556 1555 1555 1554 1553 1552 1552 1551 1550 1550 1549 1549 1548 1548 1547 1547 1547 1546 1546 1546 1545 1545 1545 1544 1544 1544
1526 1524 1528 1533 1534 1537 1542 1545 1548 1550 1551 1553 1553 1554 1554 1555 1556 1556 1556 1556 1556 1556 1555 1555 1554 1554 1553 1553 1552 1551 1550 1550 1549 1548 1548 1547 1547 1547 1546 1546 1545 1545 1544 1544 1544 1544 1544 1544 1544
1528 1529 1534 1537 1538 1539 1542 1545 1547 1548 1549 1550 1551 1552 1553 1554 1555 1555 1556 1556 1555 1555 1555 1554 1554 1553 1552 1552 1551 1550 1549 1548 1548 1547 1547 1546 1546 1545 1545 1545 1544 1544 1543 1543 1543 1543 1543 1543 1542
1532 1536 1537 1539 1540 1541 1542 1545 1547 1548 1548 1549 1550 1551 1552 1553 1554 1554 1554 1554 1554 1554 1554 1553 1553 1552 1551 1551 1550 1549 1548 1547 1547 1546 1546 1545 1544 1544 1543 1543 1542 1542 1541 1541 1541 1541 1541 1541 1541
1532 1537 1539 1540 1541 1542 1544 1545 1546 1548 1548 1548 1549 1550 1551 1552 1553 1553 1554 1554 1553 1553 1553 1552 1552 1551 1551 1550 1549 1548 1547 1546 1546 1545 1544 1544 1543 1542 1541 1541 1541 1540 1540 1540 1539 1539 1539 1539 1539
1535 1537 1540 1541 1542 1543 1544 1546 1547 1546 1547 1548 1548 1549 1550 1551 1551 1552 1552 1552 1552 1552 1551 1551 1551 1550 1550 1549 1548 1547 1546 1545 1544 1544 1543 1542 1542 1541 1540 1540 1539 1539 1538 1538 1537 1537 1537 1537 1537
1536 1537 1539 1541 1542 1544 1544 1543 1545 1545 1546 1547 1548 1548 1549 1549 1550 1550 1550 1550 1550 1550 1550 1550 1549 1549 1548 1548 1547 1546 1545 1544 1543 1542 1542 1541 1540 1540 1539 1538 1537 1537 1536 1536 1535 1535 1535 1534 1534
1535 1533 1533 1539 1541 1543 1544 1534 1542 1544 1545 1546 1546 1547 1547 1548 1548 1549 1549 1549 1549 1549 1549 1549 1548 1548 1547 1547 1546 1545 1544 1543 1542 1541 1540 1539 1539 1538 1537 1536 1535 1535 1534 1534 1533 1533 1532 1531 1531
1530 1528 1528 1536 1540 1541 1540 1533 1540 1542 1544 1544 1545 1545 1546 1546 1547 1547 1547 1547 1547 1547 1547 1547 1547 1546 1546 1545 1544 1543 1542 1541 1540 1539 1539 1538 1537 1536 1535 1534 1533 1532 1532 1531 1531 1530 1529 1529 1528
1525 1526 1529 1530 1536 1539 1536 1534 1538 1541 1542 1542 1542 1543 1544 1544 1544 1545 1545 1546 1546 1546 1546 1546 1546 1545 1544 1543 1543 1542 1541 1540 1539 1538 1537 1536 1535 1534 1533 1532 1531 1530 1530 1529 1528 1528 1527 1526 1525
1526 1526 1527 1531 1537 1537 1533 1531 1533 1537 1539 1539 1539 1540 1541 1542 1543 1543 1543 1544 1544 1544 1544 1544 1543 1543 1542 1542 1541 1540 1539 1538 1537 1536 1535 1534 1532 1531 1531 1530 1529 1528 1527 1526 1526 1525 1524 1524 1523
1528 1527 1527 1533 1538 1536 1533 1530 1529 1532 1533 1535 1536 1537 1538 1539 1540 1540 1541 1541 1541 1542 1542 1542 1542 1541 1541 1540 1539 1538 1537 1536 1535 1534 1532 1531 1530 1529 1528 1527 1526 1525 1525 1524 1523 1522 1521 1521 1521
1528 1527 1527 1531 1536 1537 1535 1522 1524 1527 1531 1532 1533 1534 1535 1536 1537 1537 1538 1539 1539 1540 1540 1540 1540 1540 1539 1539 1538 1537 1535 1534 1533 1532 1530 1529 1527 1526 1525 1524 1524 1522 1522 1521 1520 1519 1519 1518 1518
1525 1530 1532 1533 1531 1525 1532 1516 1512 1521 1526 1527 1529 1530 1531 1533 1534 1535 1535 1536 1536 1537 1538 1538 1538 1538 1537 1536 1535 1534 1532 1531 1530 1529 1527 1526 1525 1524 1523 1521 1520 1519 1519 1518 1517 1516 1516 1516 1515
1528 1533 1533 1532 1529 1528 1529 1525 1506 1519 1519 1520 1523 1525 1527 1529 1530 1531 1532 1533 1534 1535 1536 1536 1536 1536 1535 1534 1533 1532 1531 1529 1528 1526 1525 1523 1522 1521 1520 1518 1517 1516 1515 1514 1513 1513 1512 1512 1512
1534 1533 1534 1533 1529 1524 1520 1522 1503 1509 1512 1514 1518 1521 1523 1525 1527 1528 1529 1530 1531 1532 1533 1533 1533 1533 1533 1532 1531 1529 1528 1527 1525 1524 1522 1521 1519 1518 1517 1515 1514 1513 1512 1511 1509 1509 1508 1508 1508
1531 1527 1523 1522 1520 1511 1525 1523 1506 1508 1513 1514 1516 1518 1520 1522 1523 1525 1526 1527 1528 1529 1530 1530 1530 1530 1529 1529 1528 1527 1525 1524 1522 1521 1519 1518 1516 1514 1513 1511 1510 1509 1508 1507 1506 1505 1504 1503 1503
1528 1525 1520 1518 1511 1507 1526 1517 1504 1513 1514 1515 1516 1517 1518 1519 1521 1522 1523 1524 1525 1526 1527 1527 1527 1527 1526 1526 1525 1524 1523 1521 1519 1518 1516 1514 1513 1511 1509 1508 1506 1505 1504 1503 1502 1500 1499 1498 1498
1527 1525 1527 1524 1528 1523 1507 1508 1507 1511 1513 1514 1514 1515 1516 1517 1518 1519 1520 1521 1522 1523 1524 1524 1524 1524 1523 1523 1522 1521 1519 1518 1516 1515 1513 1511 1510 1508 1506 1504 1503 1501 1499 1498 1497 1495 1494 1493 1493
1529 1527 1528 1524 1519 1509 1501 1502 1498 1505 1507 1511 1512 1513 1514 1515 1516 1517 1518 1519 1519 1520 1521 1521 1521 1521 1520 1520 1519 1517 1516 1515 1513 1511 1509 1507 1505 1504 1502 1500 1498 1497 1495 1493 1492 1491 1489 1489 1488
1529 1530 1524 1521 1520 1511 1502 1497 1502 1503 1506 1508 1510 1511 1512 1513 1514 1514 1515 1516 1517 1518 1518 1518 1518 1518 1517 1516 1515 1514 1513 1511 1509 1507 1505 1503 1501 1499 1497 1496 1494 1492 1490 1488 1487 1486 1484 1483 1482
1524 1521 1522 1518 1518 1519 1509 1502 1506 1507 1508 1509 1510 1510 1511 1512 1512 1513 1513 1514 1514 1515 1515 1515 1515 1515 1514 1513 1512 1510 1509 1507 1505 1503 1501 1499 1497 1495 1493 1491 1489 1487 1486 1484 1482 1480 1479 1478 1477